Dewpoint
20 21 21 22 22 22 22 21 19 17 17 17 16 18 18 18 20 21 20 22 22 25 26 25 25 25 25 26 26 27 27 29 31 32 33 33 35 34
20 19 20 21 21 21 21 20 19 18 16 17 17 18 19 20 20 21 21 21 25 25 23 23 23 23 24 25 26 29 29 29 31 31 33 34 33 34
19 20 21 22 21 20 18 17 17 17 17 17 18 20 21 21 21 20 20 25 24 23 21 22 21 23 24 26 27 27 28 29 31 31 32 33 34 33
18 20 21 21 19 19 17 17 17 18 18 19 21 21 21 21 21 24 27 25 21 20 20 20 22 23 24 25 26 27 28 29 29 30 31 31 30 31
20 20 20 20 19 19 17 19 21 22 22 22 21 21 21 23 25 29 23 19 19 17 19 20 21 24 24 24 25 25 25 26 26 26 28 28 29 30
22 22 20 19 19 18 20 21 22 22 23 22 22 24 24 25 26 21 19 17 18 20 20 23 24 22 23 23 23 24 24 25 25 25 26 27 28 28
19 19 18 21 21 22 22 22 23 23 22 23 23 23 26 21 20 20 17 18 19 21 23 21 21 21 21 22 23 23 23 25 25 26 27 28 28 29
18 18 19 22 21 21 21 21 22 22 23 23 27 22 20 20 18 18 19 20 20 23 20 20 20 20 21 23 22 23 23 24 25 26 27 28 29 30
19 19 20 19 20 21 21 21 22 24 24 23 21 20 17 18 20 21 23 25 23 21 21 20 21 21 21 20 21 23 24 25 26 27 27 28 29 30
18 18 18 18 19 20 21 23 25 26 26 22 19 18 20 21 25 27 24 22 21 21 21 21 21 19 20 21 22 22 24 25 25 25 26 27 29 29
18 18 18 19 20 20 22 22 23 21 20 19 19 22 23 21 20 20 20 20 19 19 20 20 20 20 20 20 20 21 21 22 23 25 26 27 28 29
19 19 20 20 20 21 21 21 20 19 19 21 22 20 19 18 18 18 21 21 20 19 18 21 21 21 18 17 18 19 20 21 22 23 25 26 27 29
20 19 21 21 20 21 21 20 19 19 21 21 17 17 17 17 18 20 21 22 21 20 20 22 22 21 21 19 19 19 19 20 21 22 23 26 28 29
19 21 21 21 21 20 19 17 18 20 17 16 16 17 18 20 20 21 21 21 22 23 24 25 23 22 21 19 18 18 19 21 23 24 25 27 28 29
21 21 20 20 19 16 15 16 17 16 16 17 20 20 19 20 21 21 21 21 22 23 23 23 23 23 23 21 20 21 21 22 24 25 26 26 27 29
22 21 20 18 15 14 14 15 16 16 17 18 19 20 20 20 19 20 21 20 20 20 21 22 23 23 23 23 23 22 22 22 24 25 26 28 27 28
20 19 16 13 14 14 15 15 16 17 18 19 20 20 19 19 19 19 20 21 20 19 19 20 22 23 23 23 22 23 23 24 25 26 25 26 26 27
18 14 12 13 14 15 15 16 17 18 18 20 20 19 19 19 19 20 20 19 19 19 19 20 20 21 21 22 24 23 25 25 25 26 25 25 25 26
12 12 13 14 15 16 16 17 17 18 19 19 19 19 19 20 19 18 19 19 19 19 19 20 22 22 19 18 20 24 25 26 26 25 26 26 26 27
12 12 13 14 15 16 17 17 18 18 18 18 19 20 19 19 19 18 19 19 19 21 22 22 22 23 22 23 24 25 27 26 28 27 26 27 28 28
12 12 14 15 16 16 17 18 18 18 19 19 18 19 19 19 19 19 20 20 22 21 21 21 23 27 28 27 25 22 24 26 27 28 29 28 26 28
12 13 14 15 16 17 18 18 18 17 17 17 18 18 19 19 19 20 20 20 21 22 23 25 27 27 26 25 23 24 25 26 27 28 30 31 29 26
12 14 15 16 17 17 18 18 17 17 17 18 18 18 19 19 20 20 21 22 23 24 26 25 26 25 25 26 26 25 25 25 25 26 28 30 31 32
Wind_Speed
2 2 3 3 5 6 7 7 10 14 20 5 11 17 16 15 16 18 16 19 28 30 31 33 35 35 35 34 34 34 34 33 33 33 33 34 34 35
2 2 4 4 6 8 9 9 10 14 18 13 15 15 16 15 19 22 17 28 22 31 33 34 35 33 33 34 34 33 35 34 34 34 33 34 35 34
3 4 4 4 8 9 8 11 13 13 20 19 16 14 16 18 17 17 21 15 19 28 33 31 32 32 36 34 34 35 35 35 34 34 35 34 34 35
5 5 7 5 7 8 10 12 11 13 17 23 17 16 15 17 20 19 19 17 22 26 26 33 34 34 35 36 36 34 34 33 34 34 33 34 35 36
6 5 6 8 10 9 10 9 12 14 14 16 21 17 19 18 19 16 18 20 14 25 26 31 34 34 35 34 35 35 34 34 35 34 33 34 34 35
7 7 7 8 10 8 9 13 13 14 13 15 17 19 18 18 15 19 22 14 21 18 24 29 29 33 32 32 35 35 33 33 33 32 31 32 32 34
10 10 7 7 12 15 13 11 12 13 14 14 19 21 15 20 19 16 20 23 24 21 17 23 16 22 24 28 28 31 31 32 32 33 33 33 33 34
12 9 9 10 14 14 16 19 19 17 17 20 18 21 22 18 11 18 24 24 25 14 10 28 18 24 22 20 28 33 35 33 32 33 34 33 32 33
12 11 10 9 13 11 14 16 17 20 22 24 24 21 21 19 17 22 23 21 22 24 18 28 22 25 21 23 30 33 35 35 31 30 28 30 30 31
12 12 10 12 11 14 14 13 10 14 16 17 19 20 18 22 22 20 21 22 22 22 15 23 25 28 24 22 31 36 32 28 26 27 30 33 32 32
11 12 14 13 14 20 16 16 15 14 15 23 25 28 29 30 26 21 20 20 25 25 17 20 23 24 26 28 21 23 24 27 33 30 31 32 33 32
12 13 13 17 20 20 20 17 16 17 19 17 17 20 20 18 23 18 15 17 24 27 13 11 21 16 16 15 14 20 19 24 30 32 31 31 32 24
11 11 11 18 21 24 25 14 17 20 18 16 18 17 18 17 16 16 17 16 22 25 27 21 21 22 15 24 18 21 22 24 20 24 28 30 30 28
12 12 13 21 25 25 19 20 21 20 13 16 17 18 18 19 18 18 20 21 21 27 29 23 21 24 25 27 32 23 24 24 21 22 22 25 29 31
12 17 23 23 23 17 16 19 18 15 14 16 17 19 17 19 20 20 21 20 22 24 23 24 23 24 23 26 28 28 29 25 23 20 18 23 25 23
16 14 17 20 17 15 15 13 11 12 15 17 18 20 20 20 21 19 20 21 22 24 20 20 20 20 24 23 24 29 27 22 25 25 25 23 26 24
19 11 13 12 13 12 12 12 13 14 16 17 18 20 21 20 21 20 20 20 20 24 25 23 20 20 23 26 27 27 27 26 25 24 23 25 28 24
13 11 11 12 12 14 15 16 15 18 16 17 19 19 20 21 22 21 19 20 22 23 23 24 23 24 23 17 23 25 24 24 24 24 26 25 29 25
9 11 13 12 13 13 14 16 19 18 18 17 19 20 20 20 24 22 21 20 22 22 23 22 21 20 25 30 21 15 20 24 25 25 23 23 27 26
9 11 14 13 13 14 15 17 19 19 19 19 19 19 20 19 22 22 22 22 22 23 23 21 20 20 21 25 32 33 22 20 20 23 26 23 24 30
11 12 12 13 14 15 16 17 19 20 21 20 20 19 20 19 22 22 22 28 28 22 23 24 23 29 23 22 20 26 26 24 24 24 25 24 22 22
11 13 13 13 15 16 17 18 19 20 20 19 20 20 21 20 21 22 22 23 23 22 23 21 21 20 19 18 24 26 26 25 26 25 26 22 18 16
13 12 14 15 15 16 17 17 19 21 20 19 20 21 21 22 21 21 22 22 22 21 18 23 21 18 19 16 23 23 26 26 23 25 24 25 25 21
Wind_Direction
219 264 278 292 318 307 300 296 291 299 306 296 316 330 323 323 322 316 308 304 305 304 306 303 302 301 301 299 297 295 294 292 289 283 282 280 279 275
239 237 294 318 328 317 304 300 294 289 289 304 301 303 306 307 305 302 298 301 300 299 302 301 304 299 298 297 297 296 289 289 285 284 284 280 281 278
293 285 283 310 292 288 299 294 287 286 288 296 296 296 298 295 298 304 296 294 292 294 300 298 300 301 301 300 295 291 293 291 289 287 283 286 284 280
285 297 293 288 301 307 302 297 299 299 293 298 307 311 307 307 303 301 301 292 291 292 299 303 302 301 299 298 295 292 288 285 284 286 286 283 283 283
298 294 290 294 292 296 298 312 316 301 296 305 304 304 300 300 294 289 288 297 294 303 302 299 299 298 298 298 297 296 299 296 291 289 289 285 285 282
316 294 289 286 283 289 295 290 285 287 292 290 294 297 294 296 289 301 300 303 301 300 296 291 296 296 296 297 298 295 294 293 290 288 284 285 280 280
319 308 312 318 310 299 294 287 281 283 285 289 298 298 300 307 302 298 303 304 297 296 289 291 296 293 291 292 292 293 291 288 289 288 286 283 283 283
311 310 315 305 293 304 307 303 304 307 313 305 302 305 301 297 304 301 298 300 297 292 300 297 295 289 289 288 291 295 297 292 291 291 287 284 283 283
301 297 292 288 301 295 294 296 296 301 303 306 299 295 300 301 296 293 290 288 291 294 299 294 298 291 291 291 294 292 296 297 291 286 284 282 280 278
309 303 297 301 295 305 299 299 302 293 289 291 295 299 296 298 295 291 294 294 292 293 288 286 297 294 297 291 293 295 295 292 289 293 296 291 284 282
323 334 323 318 319 309 318 309 306 295 301 303 302 303 305 306 306 307 302 301 298 298 300 289 293 298 298 291 283 283 291 295 297 293 292 290 288 285
325 314 318 318 311 315 313 312 310 311 302 301 310 305 300 293 305 302 304 306 300 300 299 308 299 304 305 282 288 297 287 288 293 292 291 290 292 289
300 308 309 312 311 314 314 322 309 304 313 311 303 299 302 300 299 294 286 283 291 287 289 299 295 293 278 296 291 294 292 291 289 289 288 288 288 285
316 312 301 311 320 314 319 313 310 320 324 305 300 301 304 302 301 296 292 285 275 272 284 285 281 286 288 288 291 299 294 291 287 285 286 284 284 283
318 313 320 318 315 314 313 320 325 323 309 307 307 305 304 299 299 298 294 288 282 280 279 278 273 279 278 280 288 292 296 298 290 280 281 284 282 280
302 310 320 318 317 326 323 321 322 317 315 313 306 303 303 303 300 299 295 296 294 295 290 279 275 272 279 277 282 287 288 285 291 291 288 286 286 282
324 327 318 319 333 325 324 321 320 318 314 309 304 303 301 301 299 301 295 295 292 297 299 301 293 277 272 272 279 281 284 285 284 287 288 287 284 282
319 321 319 327 325 324 325 321 316 314 309 304 302 298 297 298 300 300 299 296 293 296 297 298 301 301 296 276 257 274 282 284 286 289 290 287 286 291
340 326 322 325 321 318 316 311 308 306 305 300 299 296 294 294 302 299 299 298 296 295 294 294 295 299 304 305 305 274 282 285 289 289 284 285 286 287
324 321 322 323 318 314 310 306 305 306 306 301 296 298 299 297 299 299 299 299 298 297 300 301 298 295 295 303 307 305 299 291 293 295 297 293 284 283
324 322 321 319 314 309 305 304 302 303 304 305 301 301 300 299 298 298 298 302 305 304 302 303 301 302 300 297 300 307 310 309 303 302 299 299 299 302
323 320 316 310 306 304 302 301 302 303 304 304 301 300 299 298 297 300 301 301 300 299 296 296 307 310 307 305 303 305 310 314 314 306 299 294 294 300
319 317 311 304 301 299 299 299 299 300 300 299 298 298 299 301 301 299 298 298 300 302 314 317 319 323 316 314 314 311 313 317 318 321 317 317 312 309